Location: *
(18.5200°S, 46.4500°E)
Time: 04:39:35
(UTC+00:00)

Meteor 2-10 - Pass Details

Date: 19 July 2019
Orbit: 738 x 868 km, 81.2° (Epoch: 20 August)

Event Time Altitude Azimuth Distance (km) Brightness Sun altitude
Rises 14:47:13 0° 360° (N) 3,424 7.7 -3.5°
Reaches altitude 10° 14:49:40 10° 1° (N) 2,485 6.9 -4.1°
Maximum altitude 14:55:18 72° 85° (E) 888 4.2 -5.3°
Drops below altitude 10° 15:00:50 10° 169° (SSE) 2,442 6.3 -6.5°
Sets 15:03:13 0° 170° (S) 3,361 7.0 -7.1°
